Location: D�rnast
(49.6426°N, 11.9755°E)
Time: 21:08:27
(UTC+00:00)

CSL-04 DEB - Pass Details

Date: 24 January 2021
Orbit: 544 x 628 km, 98.8° (Epoch: 01 March)

Event Time Altitude Azimuth Distance (km) Brightness Sun altitude
Rises 17:00:33 0° 17° (NNE) 2,857 7.6 -10.7°
Reaches altitude 10° 17:02:47 10° 21° (NNE) 1,936 6.7 -11.0°
Maximum altitude 17:06:56 63° 102° (ESE) 654 4.4 -11.7°
Drops below altitude 10° 17:10:58 10° 185° (S) 1,869 7.3 -12.3°
Sets 17:13:05 0° 188° (S) 2,749 8.2 -12.6°
